Theta_e
324 313 313 311 301 297 292 295 302 301 304 307 310 308 308 310 309 303 324 333 338 340 343 344 346 348 350 349 349 348 347 346 344 344 343 341 339 338 338 337 339 336 335 335 334 335 336 336 336
316 311 311 305 297 293 293 295 299 303 306 313 311 310 310 307 319 323 326 335 339 342 343 342 345 348 349 349 348 348 347 347 344 342 342 340 338 338 337 337 336 336 335 334 334 335 335 335 335
307 307 304 302 295 293 294 296 300 303 311 306 308 312 312 311 319 325 328 337 340 340 342 342 344 348 348 349 348 347 347 347 344 342 341 340 339 339 339 338 339 337 335 335 335 335 335 334 333
304 302 300 298 294 298 298 296 302 305 306 305 310 307 313 322 323 328 336 338 338 339 341 341 345 348 348 348 348 348 347 348 346 344 342 340 340 341 339 337 335 339 337 334 334 334 333 332 331
301 297 291 292 295 298 298 300 305 304 304 305 309 305 309 321 327 333 335 337 337 337 339 342 344 345 346 348 347 347 347 347 346 345 344 342 341 341 339 336 335 336 338 335 332 332 331 330 330
297 294 288 287 289 294 296 304 305 303 303 306 307 309 311 321 328 330 334 334 337 336 338 340 337 340 343 346 346 346 345 345 344 345 343 342 341 340 340 337 336 333 334 334 332 331 330 330 329
295 291 287 286 288 291 300 304 302 303 303 304 312 307 310 317 326 330 330 332 334 336 337 338 338 338 336 339 340 342 343 342 341 341 342 339 338 338 337 334 333 336 333 332 333 332 330 329 329
297 293 288 288 288 290 297 303 304 304 303 311 316 306 307 319 327 328 329 330 331 333 335 336 336 336 336 337 333 335 338 338 338 338 335 332 331 332 332 330 333 333 335 335 335 334 332 331 330
298 290 287 289 288 290 297 301 304 306 306 309 313 312 315 323 329 327 328 329 331 333 333 333 333 333 332 333 332 330 332 333 332 331 328 326 325 326 326 326 330 334 334 335 334 333 333 332 330
294 288 289 292 291 291 296 299 301 305 307 308 310 315 322 325 327 326 326 326 327 329 333 334 331 331 331 334 330 330 332 331 330 329 326 325 323 323 324 322 325 329 329 331 333 333 330 327 321
293 289 291 292 294 299 298 297 303 303 302 307 310 313 320 321 324 325 326 327 328 330 332 333 331 330 330 330 328 328 327 327 328 327 325 323 323 320 321 320 320 319 319 320 323 322 321 319 319
291 295 293 295 301 300 297 299 299 302 305 307 309 317 320 320 322 323 324 325 329 330 330 332 331 330 329 329 328 327 326 325 324 325 325 322 320 319 318 318 318 317 318 317 317 317 317 317 318
293 293 296 297 298 297 299 296 295 299 305 305 313 320 321 321 322 324 325 326 330 328 329 330 331 330 329 327 326 326 326 325 325 323 323 323 321 319 318 318 317 316 316 316 316 315 316 315 315
289 293 293 294 294 296 297 295 296 296 301 302 314 317 321 321 322 320 321 325 327 329 328 329 330 330 329 328 326 325 325 325 324 323 323 323 322 320 319 318 318 317 317 317 316 316 315 315 314
292 288 290 292 292 292 296 291 294 297 300 305 311 314 318 320 321 321 323 325 327 328 328 328 329 330 329 329 328 327 326 326 324 324 323 323 323 321 320 319 318 318 318 317 316 315 315 314 314
288 286 282 287 293 293 290 284 290 294 296 297 300 310 314 317 320 322 323 324 324 326 327 328 331 330 329 329 328 327 327 327 326 325 324 323 323 322 320 319 318 319 318 317 315 315 314 314 313
284 278 280 285 290 291 289 285 289 291 293 293 292 295 303 312 316 319 322 323 323 325 326 327 329 329 329 329 329 327 326 326 326 325 326 324 323 323 322 320 320 319 318 317 317 315 315 313 313
280 279 281 282 285 288 287 287 289 290 289 289 290 291 292 295 307 318 319 322 323 323 324 327 328 329 329 329 327 325 324 324 324 325 325 325 325 325 325 324 323 322 321 320 319 319 317 317 316
284 282 280 282 286 286 285 286 291 290 289 290 291 291 291 292 296 298 306 316 321 322 321 324 326 328 327 326 326 326 326 326 324 325 325 324 325 325 324 326 326 324 323 322 321 320 318 317 316
283 280 279 284 287 286 282 284 287 288 290 291 292 291 291 291 292 295 297 298 310 320 321 322 324 327 328 328 328 325 326 324 326 326 324 325 325 325 325 325 324 324 324 324 323 321 319 318 318
283 281 280 281 286 284 281 281 284 286 288 289 290 292 291 292 293 293 293 296 296 306 318 322 323 325 328 329 325 321 322 321 324 326 325 325 325 325 325 324 325 325 325 324 322 323 321 320 316
281 286 285 285 283 276 280 273 279 282 283 284 288 289 292 290 291 292 292 292 294 297 306 318 321 323 326 328 326 324 324 323 323 323 324 323 323 323 324 325 325 325 325 324 322 322 320 318 318
284 288 286 285 281 279 277 275 278 281 281 284 286 287 287 288 290 291 292 294 295 295 298 306 315 319 322 326 327 325 323 323 320 320 320 320 320 322 321 323 323 324 323 323 320 318 319 321 320
289 286 284 282 280 273 276 277 275 280 282 284 286 285 287 287 287 289 290 291 293 294 296 300 307 309 315 320 321 321 320 318 316 316 316 316 317 317 319 320 320 321 321 321 321 320 320 321 322
287 281 270 270 267 271 276 276 277 283 285 285 287 288 289 288 288 290 290 290 291 293 295 299 300 301 302 306 311 313 315 314 314 314 313 312 312 312 314 316 317 319 319 319 319 321 321 319 321
288 282 274 268 269 272 278 275 280 285 288 289 290 290 289 288 289 291 293 295 296 298 299 299 300 298 298 298 298 299 303 303 302 303 305 303 304 302 302 304 311 317 319 320 321 321 321 321 320
286 283 285 278 269 270 275 279 285 286 287 289 290 290 289 287 292 292 292 292 293 294 294 296 296 296 295 295 295 294 295 295 295 296 297 297 298 300 299 300 301 302 304 306 307 312 313 311 313
289 290 281 279 269 268 275 276 277 282 285 287 287 288 290 291 291 291 291 290 290 291 291 291 291 290 290 290 291 290 290 291 291 291 291 293 294 295 296 298 299 299 300 300 301 303 301 303 302
286 285 286 284 277 270 269 274 280 284 284 285 286 287 288 290 290 289 288 287 286 286 286 286 286 286 286 286 286 286 286 286 287 288 288 289 290 291 292 293 295 295 297 297 297 297 295 295 295
289 285 286 280 273 274 276 275 285 284 285 285 285 286 289 288 286 284 283 283 282 282 282 282 282 282 283 283 283 282 283 284 284 284 285 286 286 288 288 289 290 292 292 292 291 290 289 288 288
Wind_Speed
8 3 3 4 4 5 3 5 1 4 3 1 4 5 7 4 5 5 2 5 10 12 9 10 13 14 14 14 15 15 16 16 16 16 15 14 13 13 14 14 13 13 12 12 12 12 11 10 11
5 2 4 2 5 2 5 3 6 6 4 7 5 2 1 2 2 4 6 5 12 11 9 9 12 15 14 14 15 15 15 15 15 15 14 13 13 14 13 14 14 14 13 11 12 11 11 9 10
2 2 4 5 3 5 5 5 6 3 7 3 4 2 5 2 2 7 2 10 10 10 9 8 11 14 15 14 13 14 14 15 15 13 13 13 14 13 12 11 15 14 12 11 11 10 9 8 9
4 4 5 4 5 5 5 3 5 7 2 1 4 3 1 1 4 7 10 11 10 8 7 9 12 14 14 13 13 13 13 14 14 13 12 13 12 12 11 10 6 12 12 10 9 8 7 7 7
4 3 3 2 4 4 4 3 8 7 5 3 3 4 2 1 4 10 12 11 13 7 6 9 11 13 13 13 12 11 10 12 13 12 13 11 9 11 12 11 7 5 11 9 7 6 6 6 6
4 3 3 3 4 4 5 5 7 5 4 3 3 6 3 1 7 7 9 9 9 10 8 6 8 9 11 12 11 10 9 8 8 12 12 12 10 9 11 11 8 6 6 8 6 5 4 3 4
2 3 4 4 3 5 3 6 6 6 7 5 7 6 2 3 4 8 8 8 6 7 9 7 6 7 8 10 10 10 10 10 8 7 8 12 10 8 8 8 8 7 6 4 5 5 3 1 2
4 4 3 4 4 5 1 3 3 6 6 3 4 5 4 6 9 8 7 7 7 5 6 7 7 6 6 6 9 9 9 9 10 9 7 8 8 7 7 6 4 6 6 7 6 6 4 2 1
3 3 3 5 7 5 1 4 1 0 5 2 5 4 3 10 13 9 7 6 6 7 6 5 5 5 5 5 6 7 8 8 7 6 7 6 3 4 5 5 5 3 2 2 6 5 4 4 3
4 4 10 6 5 4 3 3 2 2 4 3 1 1 6 11 13 16 13 12 12 14 11 9 6 6 5 4 5 5 4 4 4 4 5 4 4 4 4 4 6 6 6 6 5 6 6 4 2
6 7 6 5 5 4 3 1 3 6 3 7 10 6 9 9 10 13 14 14 15 13 10 12 7 6 7 5 4 3 2 3 3 5 5 4 3 2 2 2 1 2 3 2 3 2 1 3 3
4 7 5 3 5 4 4 3 2 5 6 2 4 6 10 12 14 15 14 13 16 14 14 13 10 9 7 4 4 4 4 3 3 4 5 4 3 3 3 3 3 3 2 3 3 2 3 4 4
4 3 6 3 6 3 1 4 4 7 9 3 1 9 15 15 15 11 8 7 11 15 14 13 11 10 8 7 4 4 5 5 5 5 5 4 4 4 3 4 3 3 3 3 4 4 4 4 5
2 3 2 4 4 3 5 2 4 8 4 5 8 11 13 14 15 6 8 11 14 13 13 9 10 9 9 8 7 6 5 5 5 4 5 6 4 4 4 4 4 4 4 4 4 4 4 4 4
1 1 3 4 4 4 5 4 10 9 2 3 8 7 8 10 8 14 14 15 13 10 9 10 9 8 9 10 9 7 6 6 5 6 7 7 6 5 5 4 4 4 4 5 4 4 3 4 3
4 2 3 3 8 5 8 10 10 5 7 10 6 6 7 7 10 8 8 8 7 8 11 10 10 10 9 9 7 5 5 6 6 6 6 8 8 7 5 4 4 4 4 4 3 4 4 4 4
4 4 4 7 8 3 6 7 5 1 6 9 7 7 6 7 8 9 9 8 9 11 10 10 11 12 12 8 6 6 6 6 5 5 6 8 9 8 6 5 4 5 4 4 4 4 4 3 4
6 4 5 6 2 2 4 9 7 1 3 7 5 6 7 7 12 10 8 8 7 8 9 10 10 11 10 7 4 3 3 4 4 5 5 7 6 8 8 6 6 6 5 4 4 5 4 4 5
4 3 4 3 1 3 7 6 15 6 4 8 8 8 8 8 8 6 7 7 8 8 9 12 11 11 9 6 6 5 7 7 5 6 6 6 6 7 7 5 7 6 6 6 6 3 5 3 3
2 3 3 4 2 4 3 8 12 6 7 9 11 9 9 6 7 8 8 7 9 11 11 11 13 11 11 8 6 3 4 3 3 3 5 7 8 7 7 7 5 6 5 6 6 6 3 3 4
4 6 3 2 5 1 3 7 7 5 5 6 8 10 7 11 11 9 8 9 7 9 12 13 13 13 13 13 5 3 3 2 3 5 5 9 9 8 9 7 7 7 7 6 6 7 8 5 3
5 7 5 2 4 4 3 7 6 5 6 5 9 10 14 8 8 8 9 8 9 10 5 7 9 13 12 13 10 10 9 7 6 4 4 4 6 7 8 9 8 8 6 7 7 6 5 4 7
6 6 8 5 3 3 1 2 9 3 5 8 10 8 9 9 10 11 11 13 9 7 8 6 6 6 7 11 11 10 7 5 2 2 4 5 5 6 6 7 7 8 6 7 7 5 6 6 6
6 7 6 5 3 4 6 7 5 5 6 4 5 3 5 8 7 8 9 7 7 5 6 6 6 2 5 7 7 8 7 4 3 2 3 2 2 3 5 5 5 6 6 7 6 7 7 8 7
3 6 3 3 2 7 1 3 7 9 4 4 9 10 9 6 7 8 6 2 3 4 4 5 7 6 6 6 5 4 4 4 3 2 2 2 1 1 2 4 5 5 6 5 4 6 7 7 7
8 6 7 9 6 4 1 7 6 2 5 6 5 5 7 8 7 10 11 10 9 9 9 10 11 12 11 10 9 8 8 5 5 6 4 4 4 4 5 5 3 3 4 3 4 4 5 5 6
5 10 5 6 2 4 5 6 8 6 9 8 11 12 12 10 12 13 14 14 13 13 13 11 13 13 12 11 10 11 10 10 8 8 7 5 5 5 6 6 6 6 7 6 4 3 3 3 3
5 7 3 2 4 5 3 4 3 5 6 7 14 12 12 11 14 14 13 13 13 13 13 15 15 15 13 13 11 10 11 10 9 9 10 9 8 9 9 8 7 7 7 6 6 5 6 5 5
6 3 1 2 5 5 3 5 3 4 1 6 7 9 10 12 13 13 12 12 13 14 14 14 14 14 14 12 11 12 11 11 10 10 10 9 9 9 9 8 8 9 9 9 7 7 8 7 6
13 13 7 7 5 2 3 3 2 3 2 5 7 9 11 13 12 12 12 13 14 14 14 14 13 13 12 10 11 12 11 11 11 10 10 9 9 8 8 7 8 8 8 8 8 7 6 7 7
Wind_Direction
334 12 111 44 65 69 244 246 218 151 176 153 107 149 186 134 162 207 315 170 133 147 149 147 151 156 151 152 147 149 145 142 141 135 133 129 125 124 123 120 111 109 108 106 111 110 104 94 77
321 144 47 87 99 101 258 222 198 194 156 126 95 90 92 175 129 102 117 191 148 147 149 150 161 162 151 148 149 153 154 148 147 147 140 134 132 132 134 133 128 123 121 118 119 119 115 101 84
327 45 97 109 119 182 209 208 191 172 150 147 107 53 148 186 143 163 187 145 142 145 145 153 156 153 150 147 155 158 157 151 151 151 148 145 143 138 136 128 146 133 131 128 127 126 120 104 87
13 6 31 105 208 249 214 205 177 122 250 276 135 118 300 218 175 178 139 136 137 138 134 152 158 152 153 152 155 160 164 158 153 154 154 154 154 145 134 117 109 139 138 135 129 123 111 94 83
28 55 73 116 247 258 259 226 160 152 165 157 184 195 214 27 97 128 138 140 151 135 132 156 159 156 159 154 157 156 158 164 157 158 158 156 152 143 138 132 149 106 129 126 123 118 102 88 79
352 90 75 219 249 270 276 187 151 149 152 118 92 143 204 121 130 146 137 140 149 144 140 149 152 156 154 155 160 156 155 150 149 162 165 161 161 144 146 148 160 143 124 123 122 117 100 77 57
159 91 219 188 241 297 241 154 167 154 149 218 145 141 266 186 169 140 131 122 128 144 146 145 154 158 152 159 158 159 161 158 157 164 173 152 155 147 142 162 175 163 158 131 144 135 138 98 16
112 99 158 225 199 243 90 196 175 162 216 91 141 193 216 200 147 117 117 127 132 138 153 157 154 158 160 163 165 166 164 166 167 167 161 143 153 155 153 147 170 197 183 170 160 164 188 216 302
134 70 236 225 168 229 160 169 20 27 117 209 190 152 298 126 130 122 136 146 150 161 161 155 156 155 156 158 169 169 167 170 166 161 159 155 151 170 175 159 174 181 151 146 199 187 206 227 270
140 165 218 203 204 211 155 140 165 141 149 245 214 146 111 136 154 162 171 178 184 184 178 180 161 160 152 158 153 170 167 171 164 161 164 157 167 174 172 189 198 205 208 206 199 219 224 228 234
176 206 205 232 215 181 177 259 155 137 244 215 206 152 154 157 167 175 185 187 188 190 187 187 172 163 159 165 157 156 159 158 167 171 168 170 166 175 175 187 228 233 255 244 264 278 274 235 234
167 241 195 217 189 163 187 134 242 173 209 103 242 170 160 177 183 185 190 186 186 191 197 193 181 170 175 160 172 169 164 170 177 187 176 167 174 192 201 203 213 215 225 241 241 244 252 257 262
215 244 199 240 157 202 138 226 240 254 239 237 39 160 180 190 197 199 186 173 185 198 201 202 187 179 175 173 169 174 182 180 185 178 186 175 184 197 193 215 212 220 214 220 238 238 252 261 261
248 228 252 232 196 193 182 245 150 260 258 211 181 192 193 192 199 166 178 189 194 197 199 190 194 188 174 183 176 184 184 187 181 185 193 189 184 190 197 206 215 217 208 215 220 223 232 247 247
135 206 297 235 202 228 149 262 223 228 91 178 204 203 202 210 182 203 201 205 198 198 179 181 184 188 192 190 188 183 191 188 191 196 193 192 190 194 195 204 215 219 211 219 218 229 235 254 247
153 95 217 274 155 245 129 261 251 218 218 237 230 213 209 213 217 216 202 206 194 185 186 179 184 187 195 201 189 186 183 192 197 192 193 194 193 189 193 203 216 212 205 202 212 219 240 241 239
335 181 199 314 204 136 173 252 273 266 198 238 236 245 237 235 232 229 214 200 189 194 185 191 185 188 196 196 191 188 188 196 198 187 194 193 190 192 190 199 209 202 207 204 209 222 210 239 250
195 182 208 208 201 203 221 257 268 312 192 236 251 251 247 247 241 232 220 205 196 189 192 188 193 198 189 192 175 168 186 210 201 207 205 193 186 185 191 194 203 194 210 217 205 225 212 225 246
166 194 186 223 244 171 236 251 258 253 266 275 259 253 254 246 260 236 236 219 201 193 186 194 184 196 176 175 187 203 217 216 209 214 206 201 199 195 196 198 190 188 206 216 200 198 224 235 222
140 166 245 286 28 164 281 263 261 214 228 212 245 259 240 252 269 253 235 223 210 210 201 194 200 183 190 187 200 177 179 203 213 184 192 203 203 199 204 205 196 190 206 215 203 199 219 223 175
196 174 169 266 329 121 326 280 249 248 236 248 247 248 261 227 238 250 246 228 226 212 206 205 199 190 191 190 141 115 93 77 163 208 212 218 209 204 209 210 214 204 199 213 209 198 203 232 203
222 177 167 271 28 245 28 282 288 269 268 246 258 244 250 247 260 253 250 251 228 229 210 208 199 199 195 179 183 190 200 201 206 195 205 189 193 208 208 216 216 218 210 210 206 195 199 180 248
222 151 177 182 176 4 253 348 270 293 282 263 252 246 254 243 228 249 243 240 238 216 211 215 205 200 185 185 189 190 199 206 146 172 194 203 197 210 208 211 213 220 217 221 203 194 208 207 226
138 98 67 64 108 269 195 168 256 216 218 272 305 299 293 309 292 269 259 255 245 206 192 194 196 176 164 171 177 183 187 165 157 187 208 214 209 211 220 215 220 226 222 226 222 216 211 223 226
149 115 36 16 3 232 107 196 260 259 287 273 292 307 309 306 299 315 316 307 226 146 92 102 110 75 88 93 91 117 158 161 184 186 214 231 265 253 279 238 229 230 228 228 212 214 224 227 236
190 163 156 181 191 239 55 232 251 38 341 3 24 1 19 16 24 33 26 40 47 59 64 72 77 70 62 62 56 50 51 61 56 48 54 48 43 33 18 22 6 308 279 243 225 235 236 246 257
175 218 152 109 66 62 214 289 321 47 32 17 28 28 11 12 47 54 43 38 41 49 48 58 69 67 59 59 56 52 49 53 53 48 51 49 36 34 27 33 44 37 34 30 11 15 11 355 5
175 148 186 36 149 236 265 274 215 19 21 13 30 28 26 35 46 53 53 49 45 45 47 49 52 56 52 52 49 51 48 44 45 47 42 35 28 24 23 21 29 38 37 26 28 28 21 21 22
178 221 157 131 157 174 159 255 224 151 59 61 41 36 42 53 48 47 48 47 49 49 47 49 48 50 47 46 48 50 44 42 44 44 37 34 34 26 29 23 28 33 32 29 32 33 27 31 24
200 204 188 190 221 229 128 281 136 126 28 76 60 53 55 56 53 49 44 42 42 44 43 44 43 47 41 43 46 46 43 41 44 40 32 28 33 27 28 26 37 39 40 36 38 35 26 25 19